Weather History for San Antonio Stinson, TX

Change the Weather History Date:

Monday, February 24, 2014

  Actual Average Record
Temperature  
Mean Temperature 70 °F -  
Max Temperature 79 °F 65 °F 87 °F (2011)
Min Temperature 61 °F 46 °F 28 °F (2003)
Cooling Degree Days 5    
Growing Degree Days 20 (Base 50)    
Moisture  
Dew Point 54 °F    
Average Humidity 60    
Maximum Humidity 83    
Minimum Humidity 49    
Precipitation  
Precipitation 0.00 in - - ()
Sea Level Pressure  
Sea Level Pressure 30.00 in    
Wind  
Wind Speed 8 mph (ENE)    
Max Wind Speed 17 mph    
Max Gust Speed 16 mph    
Visibility 10 miles    
Events      
Averages and records for this station are not official NWS values.
T = Trace of Precipitation, MM = Missing Value Source: NWS Daily Summary

Daily Weather History Graph

Daily Weather History Graph

Search for Another Location

Airport:

Trip Planner

Search our weather history database for the weather conditions in past years. The results will help you decide how hot, cold, wet, or windy it might be!

Date:

Astronomy

Feb. 24, 2014 Rise Set
Actual Time 7:04 AM CST 6:30 PM CST
Civil Twilight 6:40 AM CST 6:54 PM CST
Nautical Twilight 6:12 AM CST 7:21 PM CST
Astronomical Twilight 5:45 AM CST 7:49 PM CST
Moon 2:50 AM CST (2/24) 1:46 PM CST (2/24)
Length of Visible Light 12h 13m
Length of Day
11h 25m
Waning Crescent, 28% of the Moon is Illuminated
Feb 24
Waning Crescent
Mar 1
New
Mar 8
First Quarter
Mar 16
Full
Mar 23
Last Quarter

Hourly Weather History & Observations

Time (CST) Temp. Dew Point Humidity Pressure Visibility Wind Dir Wind Speed Gust Speed Precip Events Conditions
12:53 AM 68.0 °F 48.0 °F 49% 29.99 in 10.0 mi ENE 12.7 mph - N/A   Clear
1:53 AM 66.0 °F 46.9 °F 50% 29.98 in 10.0 mi NNE 5.8 mph - N/A   Clear
2:53 AM 64.0 °F 46.9 °F 54% 29.98 in 10.0 mi North 8.1 mph - N/A   Scattered Clouds
3:39 AM 64.4 °F 46.4 °F 52% 30.01 in 10.0 mi NE 5.8 mph - N/A   Overcast
3:53 AM 64.0 °F 46.9 °F 54% 29.98 in 10.0 mi NNE 9.2 mph - N/A   Overcast
4:53 AM 62.1 °F 48.0 °F 60% 29.98 in 10.0 mi NNE 10.4 mph 16.1 mph N/A   Overcast
5:53 AM 61.0 °F 48.0 °F 62% 30.02 in 10.0 mi NNE 6.9 mph - N/A   Overcast
6:53 AM 62.1 °F 48.0 °F 60% 30.05 in 10.0 mi NE 6.9 mph - N/A   Overcast
7:53 AM 62.1 °F 48.0 °F 60% 30.05 in 10.0 mi NNE 6.9 mph - N/A   Overcast
8:53 AM 62.1 °F 48.9 °F 62% 30.07 in 10.0 mi ENE 6.9 mph - N/A   Overcast
9:43 AM 62.6 °F 48.2 °F 59% 30.04 in 10.0 mi ESE 17.3 mph - N/A   Scattered Clouds
9:53 AM 62.1 °F 48.9 °F 62% 30.01 in 10.0 mi SE 16.1 mph - N/A   Clear
10:53 AM 66.9 °F 53.1 °F 61% 30.01 in 10.0 mi East 6.9 mph - N/A   Partly Cloudy
11:53 AM 72.0 °F 57.0 °F 59% 30.01 in 9.0 mi SE 9.2 mph - N/A   Clear
12:53 PM 77.0 °F 57.0 °F 50% 30.01 in 10.0 mi Calm Calm - N/A   Clear
1:53 PM 75.9 °F 59.0 °F 56% 30.00 in 10.0 mi Calm Calm - N/A   Overcast
2:53 PM 77.0 °F 59.0 °F 54% 29.97 in 10.0 mi WSW 3.5 mph - N/A   Overcast
3:53 PM 78.1 °F 60.1 °F 54% 29.95 in 10.0 mi SSW 4.6 mph - N/A   Overcast
4:53 PM 79.0 °F 59.0 °F 50% 29.94 in 10.0 mi ENE 6.9 mph - N/A   Overcast
5:53 PM 77.0 °F 57.9 °F 52% 29.95 in 10.0 mi East 8.1 mph - N/A   Overcast
6:53 PM 73.9 °F 57.9 °F 57% 29.96 in 10.0 mi Variable 5.8 mph - N/A   Overcast
7:53 PM 73.0 °F 57.0 °F 57% 29.97 in 10.0 mi North - - N/A   Overcast
8:53 PM 70.0 °F 57.9 °F 65% 29.99 in 9.0 mi ESE 6.9 mph - N/A   Mostly Cloudy
9:53 PM 69.1 °F 60.1 °F 73% 29.99 in 8.0 mi ESE 9.2 mph - N/A   Scattered Clouds
10:53 PM 68.0 °F 61.0 °F 78% 29.99 in 7.0 mi North - - N/A   Scattered Clouds
11:43 PM 68.0 °F 62.6 °F 83% 30.00 in 7.0 mi North - - N/A   Mostly Cloudy
11:53 PM 68.0 °F 62.1 °F 81% 29.97 in 7.0 mi North - - N/A   Mostly Cloudy